George, South Africa

8:18 AM SAST on August 21, 2017 (GMT +0200)
George

Weather History for FAGG - July, 2013

Change the Weather History Date:

Sunday, July 7, 2013

  Actual Average Record
Temperature  
Mean Temperature 54 °F -  
Max Temperature 66 °F 64 °F 82 °F (2000)
Min Temperature 43 °F 44 °F 37 °F (2014)
Degree Days  
Heating Degree Days 10    
Growing Degree Days 4 (Base 50)    
Moisture  
Dew Point 43 °F    
Average Humidity 62    
Maximum Humidity 87    
Minimum Humidity 37    
Precipitation  
Precipitation 0.00 in - - ()
Sea Level Pressure  
Sea Level Pressure 30.15 in    
Wind  
Wind Speed 5 mph ()    
Max Wind Speed 10 mph    
Max Gust Speed -    
Visibility 14.3 miles    
Events      
Averages and records for this station are not official NWS values.
T = Trace of Precipitation, MM = Missing Value Source: Averaged Metar Reports

Daily Weather History Graph

Daily Weather History Graph

Search for Another Location

Airport or City:

Trip Planner

Search our weather history database for the weather conditions in past years. The results will help you decide how hot, cold, wet, or windy it might be!

Date:

Astronomy

Jul. 07, 2013 Rise Set
Actual Time 7:35 AM SAST 5:35 PM SAST
Civil Twilight 7:08 AM SAST 6:02 PM SAST
Nautical Twilight 6:37 AM SAST 6:33 PM SAST
Astronomical Twilight 6:07 AM SAST 7:03 PM SAST
Moon 6:38 AM SAST (7/7) 5:07 PM SAST (7/7)
Length of Visible Light 10h 54m
Length of Day
9h 59m
Waning Crescent, 1% of the Moon is Illuminated
Jul 7
Waning Crescent
Jul 8
New
Jul 16
First Quarter
Jul 22
Full
Jul 29
Last Quarter

Hourly Weather History & Observations

Time (SAST) Temp. Dew Point Humidity Pressure Visibility Wind Dir Wind Speed Gust Speed Precip Events Conditions
12:00 AM 53.6 °F 41.0 °F 62% 30.04 in - Variable 2.3 mph - N/A   Clear
1:00 AM 51.8 °F 41.0 °F 67% 30.04 in - NNE 3.5 mph - N/A   Clear
2:00 AM 46 °F 38 °F 65% 30.07 in 31 mi North 6.9 mph - -  
2:00 AM 48.2 °F 39.2 °F 71% 30.04 in - North 6.9 mph - N/A   Clear
3:00 AM 50.0 °F 39.2 °F 66% 30.06 in - ESE 3.5 mph - N/A   Clear
4:00 AM 50.0 °F 37.4 °F 62% 30.09 in - WSW 4.6 mph - N/A   Clear
5:00 AM 48 °F 38 °F 58% 30.11 in 19 mi North 8.1 mph - -  
5:00 AM 48.2 °F 37.4 °F 66% 30.09 in - North 8.1 mph - N/A   Clear
6:00 AM 53.6 °F 35.6 °F 51% 30.09 in - NNW 6.9 mph - N/A   Clear
7:00 AM 50.0 °F 35.6 °F 58% 30.09 in - NE 5.8 mph - N/A   Clear
8:00 AM 47 °F 36 °F 56% 30.15 in 19 mi West 5.8 mph - -   Clear
8:00 AM 48.2 °F 35.6 °F 62% 30.12 in - Variable 2.3 mph - N/A   Clear
9:00 AM 57.2 °F 42.8 °F 59% 30.15 in - North 3.5 mph - N/A   Clear
10:00 AM 66.2 °F 39.2 °F 37% 30.18 in - Variable 1.2 mph - N/A   Clear
11:00 AM 62 °F 47 °F 48% 30.23 in 12 mi South 10.4 mph - -   Clear
11:00 AM 62.6 °F 48.2 °F 59% 30.21 in - South 10.4 mph - N/A   Clear
12:00 PM 64.4 °F 48.2 °F 56% 30.21 in - South 5.8 mph - N/A   Clear
1:00 PM 66.2 °F 46.4 °F 49% 30.18 in - SW 3.5 mph - N/A   Clear
2:00 PM 66 °F 47 °F 39% 30.17 in 12 mi SSE 8.1 mph - -   Clear
2:00 PM 66.2 °F 46.4 °F 49% 30.15 in - SSE 8.1 mph - N/A   Clear
3:00 PM 64.4 °F 48.2 °F 56% 30.15 in - SSE 10.4 mph - N/A   Clear
4:00 PM 62.6 °F 50.0 °F 63% 30.18 in - SE 8.1 mph - N/A   Clear
5:00 PM 61 °F 48 °F 51% 30.19 in 12 mi ESE 6.9 mph - -   Clear
5:00 PM 60.8 °F 48.2 °F 63% 30.18 in - ESE 6.9 mph - N/A   Clear
6:00 PM 55.4 °F 46.4 °F 72% 30.18 in - East 4.6 mph - N/A   Clear
7:00 PM 53.6 °F 46.4 °F 77% 30.21 in - East 5.8 mph - N/A   Clear
8:00 PM 53 °F 47 °F 72% 30.22 in 12 mi ENE 6.9 mph - -   Clear
8:00 PM 51.8 °F 46.4 °F 82% 30.21 in - ENE 6.9 mph - N/A   Clear
9:00 PM 50.0 °F 46.4 °F 87% 30.21 in - NE 4.6 mph - N/A   Clear
10:00 PM 50.0 °F 44.6 °F 82% 30.21 in - ENE 5.8 mph - N/A   Clear
11:00 PM 50.0 °F 44.6 °F 82% 30.18 in - North 2.3 mph - N/A   Clear